TimeCDT,TemperatureF,Dew PointF,Humidity,Sea Level PressureIn,VisibilityMPH,Wind Direction,Wind SpeedMPH,Gust SpeedMPH,PrecipitationIn,Events,Conditions,WindDirDegrees,DateUTC
12:15 AM,62.6,55.4,77,30.08,10.0,ESE,10.4,-,N/A,,Clear,120,2014-08-17 05:15:00
12:35 AM,66.2,55.4,68,30.08,10.0,East,11.5,-,N/A,,Clear,100,2014-08-17 05:35:00
12:55 AM,66.2,55.4,68,30.08,10.0,ESE,12.7,-,N/A,,Clear,120,2014-08-17 05:55:00
1:15 AM,64.4,55.4,73,30.07,10.0,East,10.4,-,N/A,,Clear,90,2014-08-17 06:15:00
1:35 AM,68.0,55.4,64,30.07,10.0,SE,10.4,18.4,N/A,,Clear,130,2014-08-17 06:35:00
1:55 AM,69.8,55.4,60,30.06,10.0,SE,6.9,-,N/A,,Clear,140,2014-08-17 06:55:00
2:15 AM,68.0,55.4,64,30.05,10.0,ESE,4.6,-,N/A,,Clear,110,2014-08-17 07:15:00
2:35 AM,68.0,57.2,68,30.05,10.0,ENE,6.9,-,N/A,,Clear,60,2014-08-17 07:35:00
2:55 AM,68.0,55.4,64,30.05,10.0,NNW,4.6,-,N/A,,Clear,340,2014-08-17 07:55:00
3:15 AM,71.6,55.4,57,30.06,9.0,Calm,Calm,-,N/A,,Clear,0,2014-08-17 08:15:00
3:35 AM,64.4,55.4,73,30.07,10.0,West,5.8,-,N/A,,Clear,260,2014-08-17 08:35:00
3:55 AM,62.6,55.4,77,30.07,10.0,WSW,5.8,-,N/A,,Clear,250,2014-08-17 08:55:00
4:15 AM,62.6,55.4,77,30.06,10.0,WSW,3.5,-,N/A,,Clear,240,2014-08-17 09:15:00
4:35 AM,60.8,55.4,82,30.06,10.0,SSW,4.6,-,N/A,,Clear,210,2014-08-17 09:35:00
4:55 AM,60.8,55.4,82,30.06,10.0,South,3.5,-,N/A,,Clear,190,2014-08-17 09:55:00
5:15 AM,59.0,55.4,88,30.06,10.0,WNW,4.6,-,N/A,,Clear,300,2014-08-17 10:15:00
5:35 AM,59.0,55.4,88,30.07,10.0,Calm,Calm,-,N/A,,Clear,0,2014-08-17 10:35:00
5:55 AM,59.0,55.4,88,30.07,10.0,SSW,3.5,-,N/A,,Clear,200,2014-08-17 10:55:00
6:15 AM,57.2,53.6,88,30.07,10.0,SW,3.5,-,N/A,,Clear,220,2014-08-17 11:15:00
6:35 AM,57.2,53.6,88,30.07,10.0,SSE,3.5,-,N/A,,Clear,160,2014-08-17 11:35:00
6:55 AM,55.4,53.6,94,30.08,10.0,South,3.5,-,N/A,,Clear,180,2014-08-17 11:55:00
7:15 AM,57.2,53.6,88,30.08,10.0,Calm,Calm,-,N/A,,Clear,0,2014-08-17 12:15:00
7:35 AM,57.2,55.4,94,30.09,10.0,WNW,4.6,-,N/A,,Clear,290,2014-08-17 12:35:00
7:55 AM,59.0,55.4,88,30.11,10.0,NW,4.6,-,N/A,,Clear,310,2014-08-17 12:55:00
8:15 AM,62.6,59.0,88,30.12,10.0,NNE,3.5,-,N/A,,Clear,30,2014-08-17 13:15:00
8:35 AM,62.6,59.0,88,30.12,10.0,NNE,6.9,-,N/A,,Scattered Clouds,30,2014-08-17 13:35:00
8:55 AM,62.6,59.0,88,30.12,10.0,ENE,5.8,-,N/A,,Mostly Cloudy,60,2014-08-17 13:55:00
9:15 AM,62.6,60.8,94,30.12,10.0,East,9.2,-,N/A,,Overcast,100,2014-08-17 14:15:00
9:35 AM,64.4,60.8,88,30.11,10.0,ESE,10.4,-,N/A,,Overcast,110,2014-08-17 14:35:00
9:55 AM,64.4,60.8,88,30.10,10.0,ESE,15.0,-,N/A,,Overcast,110,2014-08-17 14:55:00
10:15 AM,66.2,62.6,88,30.10,10.0,East,15.0,-,N/A,,Mostly Cloudy,100,2014-08-17 15:15:00
10:35 AM,68.0,62.6,83,30.09,10.0,East,16.1,-,N/A,,Clear,90,2014-08-17 15:35:00
11:15 AM,69.8,62.6,78,30.08,10.0,East,17.3,-,N/A,,Clear,90,2014-08-17 16:15:00
11:35 AM,71.6,62.6,73,30.07,10.0,East,12.7,-,N/A,,Clear,100,2014-08-17 16:35:00
11:55 AM,73.4,62.6,69,30.06,10.0,ESE,11.5,-,N/A,,Clear,110,2014-08-17 16:55:00
12:15 PM,73.4,64.4,73,30.06,10.0,ENE,11.5,-,N/A,,Clear,70,2014-08-17 17:15:00
12:35 PM,75.2,64.4,69,30.05,10.0,ENE,5.8,-,N/A,,Clear,60,2014-08-17 17:35:00
12:55 PM,75.2,64.4,69,30.05,10.0,NE,6.9,-,N/A,,Clear,50,2014-08-17 17:55:00
1:35 PM,77.0,64.4,65,30.05,10.0,WNW,3.5,-,N/A,,Clear,290,2014-08-17 18:35:00
1:55 PM,77.0,64.4,65,30.05,10.0,NNE,6.9,-,N/A,,Partly Cloudy,30,2014-08-17 18:55:00
2:15 PM,77.0,64.4,65,30.05,10.0,ESE,15.0,18.4,N/A,,Clear,110,2014-08-17 19:15:00
2:35 PM,78.8,64.4,61,30.04,10.0,East,3.5,-,N/A,,Clear,100,2014-08-17 19:35:00
3:15 PM,78.8,64.4,61,30.04,10.0,ESE,5.8,-,N/A,,Clear,120,2014-08-17 20:15:00
3:35 PM,80.6,62.6,54,30.02,10.0,South,8.1,-,N/A,,Clear,170,2014-08-17 20:35:00
3:55 PM,75.2,62.6,65,30.02,10.0,NNE,5.8,-,N/A,Rain-Thunderstorm,Light Rain,30,2014-08-17 20:55:00
4:15 PM,71.6,64.4,78,30.01,10.0,Calm,Calm,-,0.03,Rain-Thunderstorm,Rain,0,2014-08-17 21:15:00
4:35 PM,77.0,62.6,61,30.00,10.0,Calm,Calm,-,0.03,,Clear,0,2014-08-17 21:35:00
4:55 PM,78.8,64.4,61,29.99,10.0,South,4.6,-,0.03,,Clear,180,2014-08-17 21:55:00
5:15 PM,80.6,64.4,58,29.99,10.0,SSE,5.8,-,N/A,,Clear,160,2014-08-17 22:15:00
5:35 PM,80.6,64.4,58,29.98,10.0,East,3.5,-,N/A,,Partly Cloudy,80,2014-08-17 22:35:00
5:55 PM,80.6,66.2,61,29.98,10.0,Calm,Calm,-,N/A,,Partly Cloudy,0,2014-08-17 22:55:00
6:15 PM,80.6,62.6,54,29.98,10.0,NW,9.2,16.1,N/A,,Clear,320,2014-08-17 23:15:00
6:35 PM,80.6,57.2,45,29.99,10.0,NNW,11.5,21.9,N/A,,Clear,330,2014-08-17 23:35:00
6:55 PM,80.6,55.4,42,29.99,10.0,NNW,13.8,-,N/A,,Clear,330,2014-08-17 23:55:00
7:15 PM,78.8,53.6,42,30.00,10.0,NNW,13.8,21.9,N/A,,Clear,340,2014-08-18 00:15:00
7:35 PM,77.0,53.6,44,30.01,10.0,NNW,11.5,-,N/A,,Clear,340,2014-08-18 00:35:00
7:55 PM,75.2,55.4,50,30.02,10.0,NE,15.0,-,N/A,,Scattered Clouds,50,2014-08-18 00:55:00
8:15 PM,68.0,60.8,78,30.04,10.0,ENE,6.9,-,N/A,,Partly Cloudy,60,2014-08-18 01:15:00
8:35 PM,66.2,59.0,78,30.04,10.0,East,5.8,-,N/A,,Clear,80,2014-08-18 01:35:00
8:55 PM,64.4,59.0,83,30.05,10.0,Calm,Calm,-,N/A,,Clear,0,2014-08-18 01:55:00
9:15 PM,64.4,59.0,83,30.06,10.0,Calm,Calm,-,N/A,,Clear,0,2014-08-18 02:15:00
9:35 PM,62.6,59.0,88,30.07,10.0,SSE,3.5,-,N/A,,Clear,150,2014-08-18 02:35:00
9:55 PM,62.6,59.0,88,30.07,10.0,SSW,3.5,-,N/A,,Clear,200,2014-08-18 02:55:00
10:15 PM,62.6,59.0,88,30.07,10.0,Calm,Calm,-,N/A,,Clear,0,2014-08-18 03:15:00
10:35 PM,62.6,59.0,88,30.07,10.0,Calm,Calm,-,N/A,,Clear,0,2014-08-18 03:35:00
10:55 PM,64.4,59.0,83,30.06,10.0,Calm,Calm,-,N/A,,Clear,0,2014-08-18 03:55:00
11:15 PM,62.6,57.2,82,30.06,10.0,Calm,Calm,-,N/A,,Clear,0,2014-08-18 04:15:00
11:55 PM,62.6,55.4,77,30.06,10.0,Calm,Calm,-,N/A,,Clear,0,2014-08-18 04:55:00